Vorticity
4 4 8 5 3 4 4 3 4 4 3 15 6 8 7 14 6 14 21 12 16 23 9 9 13 7 10 14 7 9 9 11 11 12 12 12 4 5 3 5 4 5 4 10
7 6 5 4 2 2 2 4 3 6 11 13 23 12 21 8 13 17 16 15 19 22 24 19 20 20 11 17 26 3 14 10 12 16 17 6 6 6 3 4 4 5 4 9
3 7 2 1 -1 4 4 3 17 15 17 13 27 15 10 12 14 13 18 16 -2 20 17 20 34 7 21 10 12 1 14 21 14 12 8 12 5 4 4 5 4 7 9 7
2 1 3 5 4 7 6 22 19 22 25 21 32 17 19 16 12 15 19 -7 11 37 19 10 12 24 5 3 6 4 6 15 10 4 10 8 8 1 7 5 3 7 8 14
4 2 3 1 5 18 16 27 15 13 15 25 19 11 35 27 23 24 5 14 37 11 14 7 13 8 8 4 14 9 15 10 6 1 9 8 -2 7 7 5 5 7 10 14
2 2 4 12 18 21 25 10 23 28 11 22 17 -2 52 36 17 7 17 22 22 4 30 15 7 6 8 7 4 15 11 9 6 6 6 9 7 5 8 3 6 10 11 14
2 4 15 15 26 25 27 25 27 13 25 12 9 -8 -14 38 9 32 1 12 4 23 8 6 14 9 26 10 12 14 5 3 7 7 7 8 7 5 6 3 8 12 15 12
3 16 25 33 27 14 45 2 26 7 36 -10 9 24 26 4 16 3 29 -69 22 12 36 15 -6 37 -12 8 14 6 6 13 13 12 4 9 7 4 4 3 16 16 10 11
23 26 55 39 18 23 26 3 36 3 14 1 4 21 13 17 22 6 14 -37 13 -3 2 11 10 10 12 12 10 9 9 10 2 7 12 7 5 7 8 11 18 9 10 8
31 53 42 7 7 13 17 2 21 18 28 -13 19 2 9 40 15 17 45 -60 -2 11 9 6 6 19 12 2 14 5 8 10 18 4 6 7 6 9 9 22 9 9 10 5
27 41 11 4 11 37 7 17 6 22 9 -3 -33 19 -0 -8 41 -14 -5 -4 52 5 -4 21 -6 19 14 8 21 6 0 2 3 3 6 8 12 6 23 11 9 13 4 5
10 10 8 10 10 11 32 18 28 18 17 -1 19 -49 36 11 -23 38 35 52 25 -4 -19 5 13 13 -1 20 7 3 15 8 9 7 14 21 8 19 8 12 11 3 14 11
6 17 15 13 12 22 20 23 15 4 -0 10 12 -0 -10 6 12 8 28 21 -2 30 12 8 2 44 0 7 25 10 10 12 8 6 9 14 12 10 11 10 3 27 9 7
10 9 26 17 20 13 30 -23 29 -4 17 19 7 23 -2 13 -10 29 1 8 -3 12 26 21 10 9 13 8 11 12 10 10 11 8 10 10 10 12 16 3 14 4 6 6
9 15 14 26 8 6 1 16 22 -5 17 -2 16 18 15 -3 9 2 11 31 22 13 21 10 12 9 12 16 11 10 12 9 15 9 6 7 8 1 11 12 6 10 5 5
22 43 35 8 -3 5 4 20 5 8 15 -38 42 -2 9 -9 -9 -4 7 -6 10 11 12 17 10 9 19 14 17 9 10 10 9 8 8 5 5 3 7 -5 20 9 6 5
-1 -9 42 55 -7 16 6 -10 -3 29 -3 20 19 -1 10 13 5 5 9 16 14 8 11 11 10 15 17 15 13 13 13 9 8 8 7 6 1 4 6 6 -3 9 4 3
-26 -6 20 62 27 27 -7 16 54 -7 17 19 17 12 14 12 16 15 9 11 10 6 8 10 13 10 11 16 13 14 10 12 9 6 7 8 -1 6 5 16 -2 29 7 3
13 24 21 -5 30 -9 10 5 8 11 8 10 8 9 10 10 10 10 14 9 4 10 13 12 9 12 10 9 13 16 11 8 10 10 7 5 6 2 2 11 -18 19 3 6
15 7 0 38 6 6 9 6 6 9 10 11 10 8 8 7 9 7 8 10 9 14 12 9 6 13 9 2 11 14 17 12 9 7 10 9 5 4 5 -18 9 50 14 3
7 7 -3 5 -4 9 8 4 3 5 9 8 9 9 10 9 7 8 8 11 8 9 13 14 7 6 11 18 4 12 15 22 19 8 12 8 8 11 10 9 10 21 14 -5
9 2 -2 5 8 7 8 6 3 6 4 4 5 5 9 13 12 9 11 10 10 8 6 5 13 10 11 8 5 13 11 18 24 25 7 6 8 12 -8 7 3 10 12 15
13 4 1 20 16 12 14 7 7 7 4 4 2 7 9 11 14 15 14 18 17 14 13 10 11 11 9 11 10 15 10 16 27 13 -4 34 41 8 1 9 4 4 4 18
33 36 23 4 7 2 5 4 8 6 2 4 3 15 13 15 14 16 18 17 14 13 15 14 12 14 18 13 11 14 11 9 14 14 37 44 -5 34 13 19 3 -2 29 26
12 7 4 8 15 4 7 14 11 9 13 21 16 15 13 14 15 9 7 13 23 23 23 21 22 21 18 16 14 14 18 12 15 9 10 8 14 15 51 27 24 40 4 9
5 1 5 -2 -1 8 1 6 9 12 16 16 15 16 9 10 10 11 13 11 8 8 7 8 8 10 13 21 24 24 23 22 22 20 18 14 13 11 8 11 19 30 31 29
Height
5675 5675 5673 5672 5667 5667 5664 5657 5655 5665 5669 5648 5649 5644 5648 5653 5653 5658 5661 5664 5668 5671 5677 5679 5685 5691 5698 5702 5706 5709 5709 5714 5718 5723 5726 5731 5736 5740 5741 5742 5744 5745 5745 5744
5668 5666 5661 5658 5654 5649 5646 5642 5646 5640 5645 5635 5630 5626 5631 5632 5639 5646 5646 5648 5652 5654 5660 5665 5673 5679 5685 5690 5693 5697 5698 5703 5709 5714 5720 5722 5724 5729 5731 5735 5736 5736 5737 5737
5655 5657 5651 5645 5643 5633 5626 5628 5621 5615 5621 5618 5611 5603 5611 5620 5622 5629 5635 5638 5637 5640 5646 5653 5658 5662 5669 5675 5681 5686 5689 5694 5699 5706 5709 5714 5717 5723 5724 5726 5727 5728 5729 5728
5642 5641 5635 5628 5626 5619 5610 5613 5600 5598 5598 5593 5604 5584 5597 5605 5609 5618 5624 5624 5625 5628 5632 5637 5641 5649 5655 5662 5667 5676 5681 5687 5691 5697 5703 5707 5710 5714 5716 5718 5718 5719 5720 5719
5634 5622 5616 5611 5610 5606 5594 5594 5590 5588 5582 5582 5589 5582 5585 5596 5602 5610 5614 5609 5610 5611 5614 5622 5631 5636 5642 5651 5661 5669 5672 5676 5682 5689 5695 5699 5701 5703 5706 5709 5710 5710 5711 5710
5613 5606 5595 5588 5589 5587 5582 5578 5578 5575 5576 5572 5583 5583 5576 5586 5593 5599 5595 5594 5597 5602 5607 5612 5620 5626 5636 5646 5653 5660 5666 5671 5675 5679 5685 5689 5693 5693 5696 5700 5700 5702 5703 5703
5591 5592 5582 5571 5567 5572 5570 5568 5566 5567 5569 5569 5580 5575 5576 5580 5582 5585 5577 5586 5591 5594 5601 5607 5617 5625 5632 5638 5644 5650 5656 5663 5668 5672 5677 5682 5683 5683 5688 5690 5692 5694 5694 5697
5570 5571 5565 5559 5554 5554 5560 5562 5561 5561 5565 5569 5573 5569 5574 5576 5574 5568 5571 5574 5584 5589 5594 5601 5610 5616 5626 5630 5636 5640 5646 5652 5658 5662 5667 5672 5673 5677 5680 5682 5685 5685 5687 5688
5546 5546 5547 5544 5544 5547 5554 5555 5561 5559 5562 5565 5569 5572 5571 5569 5567 5565 5568 5571 5581 5587 5591 5596 5603 5610 5616 5621 5625 5631 5638 5644 5648 5651 5656 5660 5665 5669 5672 5674 5675 5678 5679 5679
5535 5534 5537 5538 5540 5544 5547 5555 5554 5554 5557 5562 5566 5570 5573 5566 5568 5570 5570 5571 5578 5582 5587 5592 5599 5605 5608 5612 5617 5623 5630 5636 5642 5645 5648 5653 5658 5661 5663 5665 5668 5670 5671 5673
5529 5532 5536 5537 5539 5542 5545 5546 5551 5553 5555 5558 5562 5567 5564 5564 5565 5565 5566 5568 5571 5578 5584 5589 5595 5600 5604 5605 5609 5616 5621 5626 5633 5637 5642 5646 5651 5652 5655 5657 5659 5662 5664 5665
5527 5530 5533 5536 5536 5539 5542 5544 5547 5550 5556 5558 5560 5566 5562 5563 5562 5561 5561 5568 5571 5575 5581 5587 5590 5594 5597 5601 5604 5607 5613 5621 5626 5629 5633 5638 5641 5644 5646 5649 5653 5655 5656 5658
5526 5529 5531 5533 5536 5538 5542 5544 5548 5549 5553 5556 5561 5562 5561 5560 5560 5561 5563 5566 5570 5575 5581 5582 5586 5588 5592 5595 5598 5604 5608 5615 5620 5624 5627 5632 5634 5637 5640 5643 5645 5646 5649 5651
5527 5529 5530 5532 5532 5536 5539 5543 5545 5547 5550 5554 5555 5559 5560 5559 5559 5563 5566 5565 5570 5575 5578 5579 5582 5586 5588 5591 5594 5598 5603 5608 5613 5616 5620 5624 5627 5630 5633 5635 5636 5640 5642 5644
5526 5527 5529 5531 5533 5537 5540 5542 5544 5549 5552 5554 5557 5556 5558 5558 5559 5561 5562 5564 5568 5573 5574 5577 5579 5582 5585 5587 5589 5593 5598 5603 5607 5610 5613 5616 5620 5623 5627 5629 5631 5634 5635 5637
5527 5529 5529 5532 5534 5537 5540 5542 5546 5546 5551 5553 5554 5557 5559 5559 5562 5565 5566 5566 5569 5570 5573 5575 5577 5579 5581 5582 5585 5588 5593 5596 5600 5604 5607 5610 5614 5618 5620 5623 5624 5626 5628 5629
5529 5529 5528 5530 5536 5538 5542 5544 5544 5548 5551 5551 5553 5557 5558 5559 5560 5562 5564 5565 5567 5569 5569 5570 5572 5574 5577 5578 5580 5583 5587 5590 5594 5597 5600 5603 5607 5608 5612 5615 5618 5618 5620 5621
5532 5532 5531 5533 5537 5541 5541 5541 5542 5547 5550 5551 5553 5555 5557 5558 5558 5558 5560 5562 5563 5565 5566 5568 5569 5571 5573 5575 5577 5579 5581 5584 5587 5590 5593 5596 5598 5600 5605 5607 5609 5609 5612 5614
5534 5535 5536 5537 5538 5541 5542 5542 5544 5548 5550 5551 5552 5553 5554 5555 5556 5556 5557 5558 5559 5562 5563 5565 5566 5567 5568 5569 5571 5573 5574 5577 5580 5583 5586 5588 5591 5594 5596 5599 5601 5601 5604 5606
5535 5536 5539 5540 5541 5542 5544 5545 5547 5549 5552 5554 5554 5553 5553 5554 5554 5556 5556 5557 5558 5559 5560 5562 5563 5563 5565 5565 5566 5567 5569 5570 5572 5574 5577 5580 5584 5586 5587 5590 5591 5592 5595 5598
5537 5538 5540 5542 5543 5544 5545 5547 5549 5552 5556 5553 5554 5554 5554 5553 5554 5553 5553 5553 5554 5555 5555 5556 5557 5558 5560 5561 5561 5561 5562 5562 5564 5566 5568 5571 5573 5576 5572 5580 5582 5584 5586 5590
5536 5539 5541 5542 5543 5546 5546 5548 5549 5550 5551 5552 5553 5553 5553 5553 5552 5551 5551 5551 5550 5550 5551 5553 5553 5553 5554 5555 5556 5556 5555 5555 5556 5558 5560 5563 5563 5565 5566 5569 5571 5574 5576 5579
5536 5538 5541 5543 5545 5546 5547 5548 5549 5550 5550 5551 5552 5552 5552 5552 5551 5550 5549 5549 5549 5549 5549 5550 5549 5549 5550 5549 5549 5548 5549 5549 5549 5550 5551 5551 5550 5554 5556 5558 5560 5562 5564 5566
5535 5538 5540 5543 5545 5546 5547 5548 5549 5549 5549 5549 5548 5549 5550 5550 5550 5549 5548 5547 5547 5546 5545 5544 5543 5544 5544 5544 5543 5543 5544 5544 5542 5542 5541 5540 5541 5539 5542 5544 5547 5550 5550 5552
5537 5539 5541 5543 5544 5546 5547 5547 5548 5548 5548 5548 5548 5548 5548 5549 5549 5548 5547 5546 5544 5543 5543 5542 5542 5541 5539 5538 5538 5538 5537 5536 5536 5536 5534 5532 5532 5532 5531 5533 5534 5535 5536 5538
5536 5538 5540 5542 5543 5544 5545 5545 5546 5546 5547 5547 5546 5546 5547 5547 5547 5546 5545 5545 5544 5543 5542 5541 5540 5539 5537 5537 5535 5533 5533 5532 5531 5529 5528 5526 5525 5525 5523 5523 5523 5523 5524 5526